Time,TemperatureF,DewpointF,PressureIn,WindDirection,WindDirectionDegrees,WindSpeedMPH,WindSpeedGustMPH,Humidity,HourlyPrecipIn,Conditions,Clouds,dailyrainin,SolarRadiationWatts/m^2,SoftwareType,DateUTC
2013-09-24 00:04:00,74.5,73.0,29.96,SE,132,3.0,7.0,96,0.00,,,0.00,0,weatherlink.com 1.10,2013-09-24 04:04:00,
2013-09-24 00:19:00,74.5,73.0,29.96,ESE,120,1.0,8.0,96,0.00,,,0.00,0,weatherlink.com 1.10,2013-09-24 04:19:00,
2013-09-24 00:34:00,74.6,73.0,29.96,SE,145,1.0,6.0,96,0.00,,,0.00,0,weatherlink.com 1.10,2013-09-24 04:34:00,
2013-09-24 00:50:00,74.7,74.0,29.95,SSW,201,0.0,6.0,96,0.00,,,0.00,0,weatherlink.com 1.10,2013-09-24 04:50:00,
2013-09-24 01:05:00,74.8,74.0,29.95,South,181,0.0,6.0,96,0.00,,,0.00,0,weatherlink.com 1.10,2013-09-24 05:05:00,
2013-09-24 01:20:00,74.9,74.0,29.95,South,188,2.0,5.0,96,0.00,,,0.00,0,weatherlink.com 1.10,2013-09-24 05:20:00,
2013-09-24 01:35:00,74.9,74.0,29.94,SSE,165,1.0,7.0,96,0.00,,,0.00,0,weatherlink.com 1.10,2013-09-24 05:35:00,
2013-09-24 01:50:00,75.0,74.0,29.93,SE,132,3.0,7.0,96,0.00,,,0.00,0,weatherlink.com 1.10,2013-09-24 05:50:00,
2013-09-24 02:05:00,75.1,74.0,29.93,SE,132,0.0,7.0,96,0.00,,,0.00,0,weatherlink.com 1.10,2013-09-24 06:05:00,
2013-09-24 02:38:00,75.0,74.0,29.93,East,83,1.0,6.0,96,0.00,,,0.00,0,weatherlink.com 1.10,2013-09-24 06:38:00,
2013-09-24 02:50:00,74.8,74.0,29.93,ESE,115,2.0,6.0,96,0.00,,,0.00,0,weatherlink.com 1.10,2013-09-24 06:50:00,
2013-09-24 03:05:00,74.8,74.0,29.92,SE,124,0.0,4.0,96,0.00,,,0.00,0,weatherlink.com 1.10,2013-09-24 07:05:00,
2013-09-24 03:20:00,74.8,74.0,29.92,SE,138,1.0,5.0,96,0.00,,,0.00,0,weatherlink.com 1.10,2013-09-24 07:20:00,
2013-09-24 03:35:00,74.9,74.0,29.92,SE,130,3.0,5.0,96,0.00,,,0.00,0,weatherlink.com 1.10,2013-09-24 07:35:00,
2013-09-24 03:50:00,75.0,74.0,29.91,SE,130,0.0,5.0,96,0.00,,,0.00,0,weatherlink.com 1.10,2013-09-24 07:50:00,
2013-09-24 04:05:00,75.2,74.0,29.92,SSW,193,0.0,3.0,97,0.00,,,0.00,0,weatherlink.com 1.10,2013-09-24 08:05:00,
2013-09-24 04:20:00,75.4,74.0,29.92,SSW,197,2.0,7.0,96,0.00,,,0.00,0,weatherlink.com 1.10,2013-09-24 08:20:00,
2013-09-24 04:35:00,75.4,74.0,29.92,WSW,237,4.0,6.0,96,0.01,,,0.01,0,weatherlink.com 1.10,2013-09-24 08:35:00,
2013-09-24 04:50:00,75.4,74.0,29.91,SE,130,0.0,4.0,96,0.01,,,0.01,0,weatherlink.com 1.10,2013-09-24 08:50:00,
2013-09-24 05:20:00,75.5,74.0,29.91,SSE,157,1.0,8.0,96,0.01,,,0.01,0,weatherlink.com 1.10,2013-09-24 09:20:00,
2013-09-24 05:35:00,75.4,74.0,29.91,ESE,111,4.0,6.0,96,0.00,,,0.01,0,weatherlink.com 1.10,2013-09-24 09:35:00,
2013-09-24 05:50:00,75.3,74.0,29.91,ESE,122,0.0,6.0,96,0.00,,,0.01,0,weatherlink.com 1.10,2013-09-24 09:50:00,
2013-09-24 06:05:00,75.3,74.0,29.91,ESE,109,1.0,8.0,96,0.00,,,0.01,0,weatherlink.com 1.10,2013-09-24 10:05:00,
2013-09-24 06:20:00,75.2,74.0,29.91,SE,126,2.0,5.0,96,0.00,,,0.01,0,weatherlink.com 1.10,2013-09-24 10:20:00,
2013-09-24 06:35:00,75.2,74.0,29.91,SSE,148,0.0,2.0,96,0.00,,,0.01,0,weatherlink.com 1.10,2013-09-24 10:35:00,
2013-09-24 06:50:00,75.2,74.0,29.92,SSW,192,0.0,8.0,96,0.00,,,0.01,0,weatherlink.com 1.10,2013-09-24 10:50:00,
2013-09-24 07:05:00,75.3,74.0,29.93,ESE,113,2.0,10.0,95,0.00,,,0.01,0,weatherlink.com 1.10,2013-09-24 11:05:00,
2013-09-24 07:20:00,75.3,74.0,29.92,SW,234,2.0,6.0,95,0.00,,,0.01,0,weatherlink.com 1.10,2013-09-24 11:20:00,
2013-09-24 07:35:00,75.4,74.0,29.92,South,171,4.0,7.0,95,0.00,,,0.01,0,weatherlink.com 1.10,2013-09-24 11:35:00,
2013-09-24 08:05:00,75.3,74.0,29.93,SSW,203,2.0,7.0,95,0.00,,,0.01,5,weatherlink.com 1.10,2013-09-24 12:05:00,
2013-09-24 08:20:00,75.2,74.0,29.93,SSE,157,1.0,8.0,95,0.00,,,0.01,7,weatherlink.com 1.10,2013-09-24 12:20:00,
2013-09-24 08:35:00,75.1,74.0,29.93,SSW,194,0.0,7.0,95,0.01,,,0.02,9,weatherlink.com 1.10,2013-09-24 12:35:00,
2013-09-24 08:50:00,75.1,74.0,29.92,SW,215,0.0,6.0,95,0.02,,,0.03,14,weatherlink.com 1.10,2013-09-24 12:50:00,
2013-09-24 09:05:00,75.1,74.0,29.92,South,182,3.0,8.0,96,0.03,,,0.04,21,weatherlink.com 1.10,2013-09-24 13:05:00,
2013-09-24 09:20:00,75.0,74.0,29.92,West,259,2.0,7.0,96,0.03,,,0.04,35,weatherlink.com 1.10,2013-09-24 13:20:00,
2013-09-24 09:36:00,75.0,74.0,29.92,SSW,202,3.0,10.0,96,0.03,,,0.05,44,weatherlink.com 1.10,2013-09-24 13:36:00,
2013-09-24 09:50:00,75.0,74.0,29.92,SE,135,2.0,6.0,96,0.02,,,0.05,39,weatherlink.com 1.10,2013-09-24 13:50:00,
2013-09-24 10:05:00,75.0,74.0,29.93,SSE,159,0.0,4.0,96,0.02,,,0.06,44,weatherlink.com 1.10,2013-09-24 14:05:00,
2013-09-24 10:20:00,75.1,74.0,29.93,SSW,194,2.0,7.0,96,0.02,,,0.06,109,weatherlink.com 1.10,2013-09-24 14:20:00,
2013-09-24 10:35:00,75.5,74.0,29.93,South,186,0.0,5.0,96,0.01,,,0.06,165,weatherlink.com 1.10,2013-09-24 14:35:00,
2013-09-24 10:51:00,75.7,75.0,29.93,South,182,0.0,5.0,96,0.02,,,0.07,67,weatherlink.com 1.10,2013-09-24 14:51:00,
2013-09-24 11:06:00,75.7,75.0,29.94,SSW,198,0.0,4.0,96,0.01,,,0.07,81,weatherlink.com 1.10,2013-09-24 15:06:00,
2013-09-24 11:21:00,75.9,75.0,29.94,SW,226,2.0,4.0,96,0.01,,,0.07,91,weatherlink.com 1.10,2013-09-24 15:21:00,
2013-09-24 11:36:00,76.2,75.0,29.93,SW,214,1.0,4.0,96,0.01,,,0.07,320,weatherlink.com 1.10,2013-09-24 15:36:00,
2013-09-24 11:51:00,76.7,75.0,29.93,South,173,0.0,4.0,95,0.00,,,0.07,207,weatherlink.com 1.10,2013-09-24 15:51:00,
2013-09-24 12:06:00,77.4,76.0,29.92,South,187,1.0,3.0,95,0.00,,,0.07,582,weatherlink.com 1.10,2013-09-24 16:06:00,
2013-09-24 12:21:00,78.6,76.0,29.92,SSW,195,1.0,5.0,92,0.00,,,0.07,566,weatherlink.com 1.10,2013-09-24 16:21:00,
2013-09-24 12:36:00,78.9,76.0,29.92,SW,228,3.0,4.0,91,0.00,,,0.07,193,weatherlink.com 1.10,2013-09-24 16:36:00,
2013-09-24 12:51:00,78.9,76.0,29.91,SSW,192,0.0,6.0,91,0.00,,,0.07,255,weatherlink.com 1.10,2013-09-24 16:51:00,
2013-09-24 13:06:00,79.5,76.0,29.91,SSW,196,2.0,8.0,89,0.00,,,0.07,292,weatherlink.com 1.10,2013-09-24 17:06:00,
2013-09-24 13:36:00,80.6,77.0,29.90,SW,214,2.0,7.0,88,0.00,,,0.07,341,weatherlink.com 1.10,2013-09-24 17:36:00,
2013-09-24 13:51:00,81.2,76.0,29.89,SW,232,4.0,8.0,85,0.00,,,0.07,352,weatherlink.com 1.10,2013-09-24 17:51:00,
2013-09-24 14:06:00,82.3,76.0,29.88,SSW,213,3.0,7.0,82,0.00,,,0.07,940,weatherlink.com 1.10,2013-09-24 18:06:00,
2013-09-24 14:21:00,82.4,77.0,29.88,SSW,199,2.0,6.0,83,0.00,,,0.07,376,weatherlink.com 1.10,2013-09-24 18:21:00,
2013-09-24 14:36:00,82.9,76.0,29.86,South,191,5.0,7.0,80,0.00,,,0.07,497,weatherlink.com 1.10,2013-09-24 18:36:00,
2013-09-24 14:51:00,83.7,76.0,29.86,South,182,2.0,7.0,78,0.00,,,0.07,401,weatherlink.com 1.10,2013-09-24 18:51:00,
2013-09-24 15:06:00,84.2,76.0,29.86,SW,216,5.0,8.0,76,0.00,,,0.07,267,weatherlink.com 1.10,2013-09-24 19:06:00,
2013-09-24 15:21:00,83.8,75.0,29.85,SW,215,5.0,8.0,75,0.00,,,0.07,234,weatherlink.com 1.10,2013-09-24 19:21:00,
2013-09-24 15:36:00,83.0,75.0,29.85,SW,224,6.0,8.0,77,0.00,,,0.07,294,weatherlink.com 1.10,2013-09-24 19:36:00,
2013-09-24 15:51:00,83.0,76.0,29.85,South,190,2.0,8.0,79,0.00,,,0.07,417,weatherlink.com 1.10,2013-09-24 19:51:00,
2013-09-24 16:06:00,82.5,76.0,29.85,ESE,120,2.0,7.0,80,0.00,,,0.07,178,weatherlink.com 1.10,2013-09-24 20:06:00,
2013-09-24 16:21:00,82.0,76.0,29.85,SW,216,3.0,7.0,82,0.00,,,0.07,62,weatherlink.com 1.10,2013-09-24 20:21:00,
2013-09-24 16:36:00,82.3,77.0,29.85,SE,128,1.0,8.0,83,0.00,,,0.07,251,weatherlink.com 1.10,2013-09-24 20:36:00,
2013-09-24 16:51:00,82.3,77.0,29.84,SSW,211,5.0,6.0,83,0.00,,,0.07,116,weatherlink.com 1.10,2013-09-24 20:51:00,
2013-09-24 17:06:00,81.6,77.0,29.84,SE,125,2.0,5.0,85,0.00,,,0.07,127,weatherlink.com 1.10,2013-09-24 21:06:00,
2013-09-24 17:21:00,81.5,77.0,29.84,SE,132,2.0,5.0,85,0.00,,,0.07,269,weatherlink.com 1.10,2013-09-24 21:21:00,
2013-09-24 17:36:00,81.6,77.0,29.84,SSW,204,4.0,5.0,85,0.00,,,0.07,91,weatherlink.com 1.10,2013-09-24 21:36:00,
2013-09-24 17:51:00,81.5,77.0,29.83,SW,234,1.0,4.0,85,0.00,,,0.07,42,weatherlink.com 1.10,2013-09-24 21:51:00,
2013-09-24 18:06:00,81.0,77.0,29.85,SW,233,3.0,7.0,86,0.00,,,0.07,56,weatherlink.com 1.10,2013-09-24 22:06:00,
2013-09-24 18:21:00,80.5,76.0,29.85,SW,234,5.0,8.0,87,0.00,,,0.07,53,weatherlink.com 1.10,2013-09-24 22:21:00,
2013-09-24 18:36:00,80.1,76.0,29.86,SW,229,5.0,7.0,88,0.00,,,0.07,7,weatherlink.com 1.10,2013-09-24 22:36:00,
2013-09-24 18:51:00,76.2,73.0,29.89,North,5,4.0,15.0,89,0.03,,,0.10,0,weatherlink.com 1.10,2013-09-24 22:51:00,
2013-09-24 19:07:00,72.7,71.0,29.89,NNE,32,4.0,11.0,93,0.24,,,0.31,0,weatherlink.com 1.10,2013-09-24 23:07:00,
2013-09-24 19:22:00,72.1,70.0,29.88,NE,47,1.0,3.0,94,0.24,,,0.31,0,weatherlink.com 1.10,2013-09-24 23:22:00,
2013-09-24 19:37:00,71.8,70.0,29.87,NE,51,0.0,4.0,95,0.25,,,0.32,0,weatherlink.com 1.10,2013-09-24 23:37:00,
2013-09-24 19:52:00,71.8,71.0,29.88,NE,51,0.0,2.0,96,0.21,,,0.32,0,weatherlink.com 1.10,2013-09-24 23:52:00,
2013-09-24 20:07:00,72.0,71.0,29.88,SW,229,2.0,4.0,96,0.02,,,0.33,0,weatherlink.com 1.10,2013-09-25 00:07:00,
2013-09-24 20:22:00,71.8,71.0,29.86,SW,228,0.0,2.0,96,0.03,,,0.34,0,weatherlink.com 1.10,2013-09-25 00:22:00,
2013-09-24 20:37:00,71.9,71.0,29.86,SW,219,2.0,4.0,96,0.03,,,0.35,0,weatherlink.com 1.10,2013-09-25 00:37:00,
2013-09-24 20:52:00,72.0,71.0,29.86,SSW,211,0.0,7.0,96,0.04,,,0.36,0,weatherlink.com 1.10,2013-09-25 00:52:00,
2013-09-24 21:07:00,72.1,71.0,29.86,SSW,194,0.0,7.0,96,0.04,,,0.37,0,weatherlink.com 1.10,2013-09-25 01:07:00,
2013-09-24 21:22:00,72.3,71.0,29.86,SW,224,2.0,4.0,96,0.03,,,0.37,0,weatherlink.com 1.10,2013-09-25 01:22:00,
2013-09-24 21:37:00,72.4,71.0,29.86,South,182,0.0,6.0,96,0.02,,,0.37,0,weatherlink.com 1.10,2013-09-25 01:37:00,
2013-09-24 21:52:00,72.4,71.0,29.86,SSW,212,3.0,8.0,96,0.01,,,0.37,0,weatherlink.com 1.10,2013-09-25 01:52:00,
2013-09-24 22:07:00,72.4,71.0,29.86,SSW,197,1.0,6.0,96,0.00,,,0.37,0,weatherlink.com 1.10,2013-09-25 02:07:00,
2013-09-24 22:22:00,72.6,71.0,29.85,South,169,1.0,4.0,96,0.00,,,0.37,0,weatherlink.com 1.10,2013-09-25 02:22:00,
2013-09-24 22:37:00,72.8,72.0,29.85,SSW,213,1.0,7.0,96,0.00,,,0.37,0,weatherlink.com 1.10,2013-09-25 02:37:00,
2013-09-24 22:52:00,73.0,72.0,29.85,SSW,212,1.0,3.0,96,0.00,,,0.37,0,weatherlink.com 1.10,2013-09-25 02:52:00,
2013-09-24 23:07:00,73.3,72.0,29.84,SSW,209,0.0,2.0,96,0.00,,,0.37,0,weatherlink.com 1.10,2013-09-25 03:07:00,
2013-09-24 23:22:00,73.6,72.0,29.85,South,170,2.0,8.0,96,0.00,,,0.37,0,weatherlink.com 1.10,2013-09-25 03:22:00,
2013-09-24 23:37:00,74.0,73.0,29.84,SSW,194,3.0,6.0,96,0.00,,,0.37,0,weatherlink.com 1.10,2013-09-25 03:37:00,
2013-09-24 23:52:00,74.1,73.0,29.84,SSW,211,2.0,6.0,96,0.00,,,0.37,0,weatherlink.com 1.10,2013-09-25 03:52:00,